This is the latest recevied weather packets stored in our database for station/object DG8SF-13. If no packets are shown the sender has not sent any weather packets the latest 10 day(s).
| Time | Temp. | Humidity | Pressure | Rain* | Wind** | Luminosity | Snow |
|---|---|---|---|---|---|---|---|
| 1788128773 | 15° C | 92% | 1014.7 hPa | 0 mm | - | - | - |
| 1788128461 | 15.56° C | 92% | 1014.8 hPa | 0 mm | - | - | - |
| 1788128149 | 15.56° C | 93% | 1014.9 hPa | 0 mm | - | - | - |
| 1788127838 | 16.11° C | 93% | 1014.9 hPa | 0 mm | - | - | - |
| 1788127526 | 16.11° C | 93% | 1015 hPa | 0 mm | - | - | - |
| 1788127211 | 15.56° C | 92% | 1014.9 hPa | 0 mm | - | - | - |
| 1788126902 | 16.11° C | 92% | 1015 hPa | 0 mm | - | - | - |
| 1788126589 | 16.11° C | 92% | 1014.9 hPa | 0 mm | - | - | - |
| 1788126265 | 16.11° C | 91% | 1014.9 hPa | 0 mm | - | - | - |
| 1788125952 | 16.11° C | 91% | 1015.1 hPa | 0 mm | - | - | - |
| 1788125642 | 16.11° C | 91% | 1015.1 hPa | 0 mm | - | - | - |
| 1788125329 | 16.11° C | 90% | 1015.1 hPa | 0 mm | - | - | - |
| 1788125018 | 16.67° C | 90% | 1015.2 hPa | 0 mm | - | - | - |
| 1788124705 | 16.67° C | 90% | 1015.2 hPa | 0 mm | - | - | - |
| 1788124382 | 16.67° C | 91% | 1015.2 hPa | 0 mm | - | - | - |
| 1788124069 | 16.67° C | 91% | 1015.1 hPa | 0 mm | - | - | - |
| 1788123758 | 16.67° C | 91% | 1015.1 hPa | 0 mm | - | - | - |
| 1788123444 | 16.67° C | 91% | 1015.1 hPa | 0 mm | - | - | - |
| 1788123136 | 16.67° C | 91% | 1014.9 hPa | 0 mm | - | - | - |
| 1788122822 | 16.67° C | 90% | 1014.9 hPa | 0 mm | - | - | - |
| 1788122509 | 16.11° C | 90% | 1014.9 hPa | 0 mm | - | - | - |
| 1788122199 | 16.67° C | 90% | 1014.9 hPa | 0 mm | - | - | - |
| 1788121884 | 16.67° C | 89% | 1015 hPa | 0 mm | - | - | - |
| 1788121572 | 16.67° C | 89% | 1015 hPa | 0 mm | - | - | - |
| 1788121264 | 16.67° C | 89% | 1015.1 hPa | 0 mm | - | - | - |
* Rain latest hour (hover to see other rain measurements)
** Current wind speed in m/s (hover to see current wind gust speed)